Location: Newark
(13.6797°N, 8.5297°E)
Time: 05:41:45
(UTC+00:00)

A-11 Canister half - Pass Details

Date: 21 January 2020
Orbit: 1517 x 1683 km, 47.2° (Epoch: 17 February)

Event Time Altitude Azimuth Distance (km) Brightness Sun altitude
Rises 21:37:21 0° 221° (SW) 4,826 12.0 -60.7°
Reaches altitude 10° 21:40:30 10° 221° (SW) 3,818 11.3 -61.4°
Enters shadow 21:40:54 12° 221° (SW) 3,692 11.2 -61.5°
Maximum altitude 21:50:12 90° 165° (SSE) 1,566 - -63.7°
Drops below altitude 10° 21:59:36 10° 42° (NE) 3,699 - -65.9°
Sets 22:02:36 0° 42° (NE) 4,669 - -66.6°
